This is the latest recevied weather packets stored in our database for station/object W0VI. If no packets are shown the sender has not sent any weather packets the latest 10 day(s).
| Time | Temp. | Humidity | Pressure | Rain* | Wind** | Luminosity | Snow |
|---|---|---|---|---|---|---|---|
| 1788018103 | 21.11° C | 91% | 1013.4 hPa | 0 mm | - | 173 W/m² | - |
| 1788017799 | 21.11° C | 91% | 1013.5 hPa | 0 mm | - | 232 W/m² | - |
| 1788017495 | 20.56° C | 92% | 1013.2 hPa | 0 mm | - | 269 W/m² | - |
| 1788017192 | 20.56° C | 94% | 1013.4 hPa | 0 mm | - | 240 W/m² | - |
| 1788016892 | 20.56° C | 95% | 1013.3 hPa | 0 mm | - | 212 W/m² | - |
| 1788016590 | 20.56° C | 96% | 1013.2 hPa | 0 mm | - | 229 W/m² | - |
| 1788016285 | 20.56° C | 98% | 1013.2 hPa | 0 mm | - | 224 W/m² | - |
| 1788015984 | 20° C | 98% | 1013.3 hPa | 0 mm | - | 313 W/m² | - |
| 1788015679 | 20° C | 98% | 1013.4 hPa | 0 mm | - | 155 W/m² | - |
| 1788015373 | 20° C | 99% | 1013.4 hPa | 0 mm | - | 154 W/m² | - |
| 1788015068 | 20° C | 99% | 1013.5 hPa | 0 mm | - | 164 W/m² | - |
| 1788014766 | 19.44° C | 99% | 1013.4 hPa | 0 mm | - | 111 W/m² | - |
| 1788014462 | 19.44° C | 99% | 1013.7 hPa | 0 mm | - | 83 W/m² | - |
| 1788014157 | 19.44° C | 99% | 1013.4 hPa | 0 mm | - | 47 W/m² | - |
| 1788013856 | 19.44° C | 99% | 1013.6 hPa | 0 mm | - | 46 W/m² | - |
| 1788013550 | 19.44° C | 99% | 1013.7 hPa | 0 mm | - | 51 W/m² | - |
| 1788013244 | 19.44° C | 99% | 1014 hPa | 0 mm | - | 39 W/m² | - |
| 1788012938 | 19.44° C | 99% | 1014.2 hPa | 0 mm | - | 29 W/m² | - |
| 1788012638 | 19.44° C | 99% | 1014.3 hPa | 0 mm | - | 17 W/m² | - |
| 1788012332 | 19.44° C | 99% | 1014.2 hPa | 0 mm | - | 20 W/m² | - |
| 1788012028 | 19.44° C | 99% | 1014 hPa | 0 mm | - | 24 W/m² | - |
| 1788011726 | 19.44° C | 99% | 1013.8 hPa | 0 mm | - | 20 W/m² | - |
| 1788011422 | 19.44° C | 99% | 1013.5 hPa | 0 mm | - | 18 W/m² | - |
| 1788011121 | 19.44° C | 99% | 1013.3 hPa | 0 mm | - | 19 W/m² | - |
| 1788010816 | 19.44° C | 99% | 1013.5 hPa | 0 mm | - | 25 W/m² | - |
* Rain latest hour (hover to see other rain measurements)
** Current wind speed in m/s (hover to see current wind gust speed)